TAR54TJ EPSC-DTTJ

Flight info

Callsign TAR54TJ
Flight time N/A
Altitude 38000
Route PESEL DCT POGAB Z36 PIKIB DCT RENKA DCT ARALD DCT LABIN DCT INTUD DCT RONAB DCT TUNEX UG737 CBN UG727 MON UN157 RIMSA UG362 LIRMI
Aircraft A320/M-SDE3FGHIRWY/LB1

Departure

Time 2026-04-25 17:02
Airport Solidarity Szczecin–Goleniów Airport (EPSC)

Arrival

Time N/A
Airport Djerba Zarzis International Airport (DTTJ)
Time Latitude Longitude Altitude Speed Heading
2026-04-25 16:44 53.59236 14.89393 125 ft 0 kts 228°
2026-04-25 16:56 53.59227 14.89376 124 ft 3 kts 229°
2026-04-25 16:56 53.59199 14.89322 123 ft 8 kts 229°
2026-04-25 16:56 53.59154 14.89232 121 ft 11 kts 225°
2026-04-25 16:57 53.59135 14.89205 120 ft 0 kts 223°
2026-04-25 16:57 53.59134 14.89203 120 ft 1 kts 223°
2026-04-25 16:57 53.59115 14.89173 119 ft 5 kts 223°
2026-04-25 16:58 53.59076 14.89111 117 ft 2 kts 224°
2026-04-25 16:58 53.59065 14.89099 117 ft 5 kts 184°
2026-04-25 16:58 53.59011 14.89183 117 ft 11 kts 130°
2026-04-25 16:58 53.58959 14.89282 119 ft 10 kts 132°
2026-04-25 16:59 53.58909 14.89376 121 ft 10 kts 132°
2026-04-25 16:59 53.58861 14.89464 123 ft 10 kts 132°
2026-04-25 16:59 53.58816 14.89548 124 ft 9 kts 133°
2026-04-25 16:59 53.58772 14.89629 126 ft 9 kts 133°
2026-04-25 17:00 53.58723 14.89726 127 ft 12 kts 128°
2026-04-25 17:00 53.58658 14.89864 127 ft 16 kts 130°
2026-04-25 17:00 53.58577 14.90020 130 ft 18 kts 131°
2026-04-25 17:00 53.58485 14.90199 131 ft 21 kts 131°
2026-04-25 17:01 53.58384 14.90399 132 ft 23 kts 130°
2026-04-25 17:01 53.58337 14.90503 133 ft 5 kts 248°
2026-04-25 17:01 53.58370 14.90425 133 ft 12 kts 311°
2026-04-25 17:01 53.58585 14.90009 130 ft 87 kts 310°
2026-04-25 17:02 53.59142 14.88925 146 ft 150 kts 309°
2026-04-25 17:02 53.59797 14.87610 902 ft 149 kts 309°
2026-04-25 17:02 53.60462 14.86320 1643 ft 153 kts 308°
2026-04-25 17:02 53.60948 14.85380 1985 ft 164 kts 308°
2026-04-25 17:03 53.62003 14.83334 2667 ft 187 kts 308°
2026-04-25 17:03 53.62906 14.81578 3095 ft 212 kts 308°
2026-04-25 17:03 53.63753 14.79459 3667 ft 229 kts 289°
2026-04-25 17:03 53.63970 14.76758 4318 ft 244 kts 263°
2026-04-25 17:04 53.63419 14.74062 5254 ft 249 kts 245°
2026-04-25 17:04 53.62758 14.71872 6092 ft 251 kts 244°
2026-04-25 17:04 53.61919 14.69128 7075 ft 255 kts 244°
2026-04-25 17:04 53.61104 14.66462 8011 ft 259 kts 243°
2026-04-25 17:05 53.60291 14.63797 8910 ft 263 kts 243°
2026-04-25 17:05 53.58602 14.58249 10576 ft 275 kts 242°